| time (UTC) | temp C | wind direction | speed KPH | gust KPH | rain 1hr cm | rain 24hr cm | rain mn cm | humidity % | barometer mb |
| 20260510153032 | 19 | 0 | 0.0 | 0.0 | 0.00 | 0.18 | 0.03 | 75 | 1013.1 |
| 20260510151527 | 18 | 0 | 0.0 | 0.0 | 0.00 | 0.18 | 0.03 | 82 | 1013.1 |
| 20260510150030 | 17 | 0 | 0.0 | 0.0 | 0.00 | 0.18 | 0.03 | 83 | 1013.3 |
| 20260510144533 | 16 | 0 | 0.0 | 0.0 | 0.00 | 0.18 | 0.03 | 84 | 1013.2 |
| 20260510143028 | 15 | 0 | 0.0 | 0.0 | 0.00 | 0.18 | 0.03 | 88 | 1013.2 |
| 20260510141527 | 15 | 0 | 0.0 | 0.0 | 0.00 | 0.18 | 0.03 | 90 | 1013.2 |
| 20260510140028 | 14 | 0 | 0.0 | 0.0 | 0.00 | 0.18 | 0.03 | 92 | 1013.1 |
| 20260510134530 | 13 | 0 | 0.0 | 0.0 | 0.00 | 0.18 | 0.03 | 94 | 1013.0 |
| 20260510133034 | 12 | 0 | 0.0 | 0.0 | 0.00 | 0.18 | 0.03 | 96 | 1013.1 |
| 20260510131535 | 12 | 0 | 0.0 | 4.8 | 0.00 | 0.18 | 0.03 | 97 | 1013.0 |
| 20260510130028 | 11 | 0 | 0.0 | 0.0 | 0.00 | 0.18 | 0.03 | 97 | 1013.3 |
| 20260510124526 | 11 | 0 | 0.0 | 0.0 | 0.00 | 0.18 | 0.03 | 97 | 1013.2 |
| 20260510123030 | 11 | 0 | 0.0 | 0.0 | 0.00 | 0.18 | 0.03 | 97 | 1013.0 |
| 20260510121532 | 11 | 0 | 0.0 | 0.0 | 0.00 | 0.18 | 0.03 | 97 | 1012.7 |
| 20260510120030 | 11 | 0 | 0.0 | 0.0 | 0.00 | 0.18 | 0.03 | 97 | 1012.4 |
| 20260510114545 | 10 | 0 | 0.0 | 0.0 | 0.00 | 0.18 | 0.03 | 97 | 1012.4 |
| 20260510113039 | 10 | 0 | 0.0 | 0.0 | 0.00 | 0.18 | 0.03 | 97 | 1012.2 |
| 20260510111533 | 10 | 0 | 0.0 | 0.0 | 0.00 | 0.18 | 0.03 | 97 | 1012.1 |
| 20260510110037 | 10 | 0 | 0.0 | 0.0 | 0.00 | 0.18 | 0.03 | 97 | 1012.0 |
| 20260510104528 | 10 | 0 | 0.0 | 0.0 | 0.00 | 0.18 | 0.03 | 96 | 1012.0 |
| 20260510103027 | 10 | 0 | 0.0 | 0.0 | 0.00 | 0.18 | 0.03 | 96 | 1011.7 |
| 20260510101528 | 10 | 0 | 0.0 | 0.0 | 0.00 | 0.18 | 0.03 | 96 | 1011.6 |
| 20260510100033 | 10 | 0 | 0.0 | 0.0 | 0.00 | 0.18 | 0.03 | 96 | 1011.7 |
| 20260510094535 | 10 | 0 | 0.0 | 0.0 | 0.00 | 0.18 | 0.03 | 96 | 1011.5 |
| 20260510093030 | 10 | 0 | 0.0 | 0.0 | 0.00 | 0.18 | 0.03 | 96 | 1011.3 |
| 20260510091529 | 10 | 0 | 0.0 | 0.0 | 0.00 | 0.18 | 0.03 | 96 | 1011.3 |
| 20260510090029 | 10 | 0 | 0.0 | 0.0 | 0.00 | 0.18 | 0.03 | 96 | 1011.5 |
| 20260510084527 | 10 | 0 | 0.0 | 4.8 | 0.00 | 0.18 | 0.03 | 96 | 1011.7 |
| 20260510083030 | 9 | 0 | 0.0 | 3.2 | 0.03 | 0.18 | 0.03 | 96 | 1011.5 |
| 20260510081528 | 9 | 0 | 0.0 | 4.8 | 0.03 | 0.18 | 0.03 | 96 | 1011.3 |
| 20260510080027 | 9 | 0 | 0.0 | 0.0 | 0.03 | 0.18 | 0.03 | 96 | 1010.9 |
| 20260510074536 | 10 | 0 | 0.0 | 0.0 | 0.03 | 0.18 | 0.03 | 96 | 1010.9 |
| 20260510073028 | 10 | 0 | 0.0 | 0.0 | 0.00 | 0.15 | 0.00 | 96 | 1010.8 |
| 20260510071528 | 10 | 0 | 0.0 | 0.0 | 0.00 | 0.15 | 0.00 | 96 | 1010.8 |
| 20260510070033 | 10 | 0 | 0.0 | 0.0 | 0.00 | 0.15 | 0.00 | 96 | 1010.9 |
| 20260510064526 | 10 | 0 | 0.0 | 0.0 | 0.00 | 0.15 | 0.00 | 96 | 1010.8 |
| 20260510063027 | 10 | 0 | 0.0 | 0.0 | 0.00 | 0.15 | 0.00 | 96 | 1010.5 |
| 20260510061530 | 10 | 0 | 0.0 | 0.0 | 0.00 | 0.15 | 0.00 | 96 | 1010.4 |
| 20260510060033 | 10 | 0 | 0.0 | 0.0 | 0.00 | 0.15 | 0.00 | 96 | 1010.7 |
| 20260510054531 | 10 | 0 | 0.0 | 0.0 | 0.00 | 0.15 | 0.00 | 96 | 1010.7 |
| 20260510053029 | 10 | 0 | 0.0 | 0.0 | 0.00 | 0.15 | 0.00 | 96 | 1010.8 |
| 20260510051526 | 9 | 0 | 0.0 | 0.0 | 0.00 | 0.15 | 0.00 | 96 | 1010.8 |
| 20260510050031 | 9 | 0 | 0.0 | 0.0 | 0.00 | 0.15 | 0.00 | 96 | 1010.9 |
| 20260510044530 | 9 | 0 | 0.0 | 0.0 | 0.00 | 0.15 | 0.00 | 96 | 1011.0 |
| 20260510043028 | 9 | 0 | 0.0 | 0.0 | 0.00 | 0.15 | 0.00 | 96 | 1011.1 |
| 20260510041532 | 9 | 0 | 0.0 | 0.0 | 0.00 | 0.15 | 0.00 | 95 | 1011.1 |
| 20260510040027 | 9 | 0 | 0.0 | 0.0 | 0.00 | 0.15 | 0.00 | 95 | 1011.1 |
| 20260510034530 | 9 | 0 | 0.0 | 0.0 | 0.00 | 0.15 | 0.15 | 95 | 1010.9 |
| 20260510033028 | 9 | 0 | 0.0 | 0.0 | 0.00 | 0.15 | 0.15 | 95 | 1011.0 |
| 20260510031530 | 8 | 0 | 0.0 | 0.0 | 0.00 | 0.15 | 0.15 | 95 | 1010.8 |
| 20260510030029 | 8 | 0 | 0.0 | 0.0 | 0.00 | 0.15 | 0.15 | 95 | 1010.7 |
| 20260510024527 | 8 | 0 | 0.0 | 0.0 | 0.00 | 0.15 | 0.15 | 94 | 1010.6 |
| 20260510023030 | 8 | 0 | 0.0 | 0.0 | 0.00 | 0.15 | 0.15 | 93 | 1010.6 |
| 20260510021535 | 8 | 0 | 0.0 | 0.0 | 0.00 | 0.15 | 0.15 | 92 | 1010.6 |
| 20260510020032 | 8 | 0 | 0.0 | 0.0 | 0.00 | 0.15 | 0.15 | 92 | 1010.6 |
| 20260510014531 | 9 | 0 | 0.0 | 0.0 | 0.00 | 0.15 | 0.15 | 91 | 1010.5 |
| 20260510013032 | 10 | 0 | 0.0 | 0.0 | 0.00 | 0.15 | 0.15 | 91 | 1010.6 |
| 20260510011530 | 10 | 0 | 0.0 | 0.0 | 0.00 | 0.15 | 0.15 | 90 | 1010.5 |
| 20260510010028 | 10 | 0 | 0.0 | 0.0 | 0.00 | 0.15 | 0.15 | 90 | 1010.4 |
| 20260510004528 | 10 | 0 | 0.0 | 0.0 | 0.00 | 0.15 | 0.15 | 90 | 1010.2 |
| 20260510003033 | 11 | 0 | 0.0 | 0.0 | 0.00 | 0.15 | 0.15 | 90 | 1010.0 |
| 20260510001538 | 11 | 0 | 0.0 | 0.0 | 0.00 | 0.15 | 0.15 | 90 | 1010.0 |
| 20260510000028 | 12 | 0 | 0.0 | 0.0 | 0.00 | 0.15 | 0.15 | 90 | 1009.9 |
| 20260509234530 | 12 | 0 | 0.0 | 0.0 | 0.00 | 0.15 | 0.15 | 89 | 1010.0 |
| 20260509233030 | 12 | 0 | 0.0 | 0.0 | 0.00 | 0.15 | 0.15 | 90 | 1010.0 |
| 20260509231528 | 12 | 0 | 0.0 | 0.0 | 0.00 | 0.15 | 0.15 | 89 | 1009.9 |
| 20260509230027 | 12 | 0 | 0.0 | 0.0 | 0.00 | 0.15 | 0.15 | 88 | 1010.0 |
| 20260509224530 | 12 | 0 | 0.0 | 3.2 | 0.00 | 0.15 | 0.15 | 88 | 1009.9 |
| 20260509223030 | 12 | 0 | 0.0 | 8.0 | 0.00 | 0.15 | 0.15 | 89 | 1009.9 |
| 20260509221527 | 12 | 0 | 0.0 | 4.8 | 0.00 | 0.15 | 0.15 | 88 | 1009.8 |
| 20260509220028 | 13 | 0 | 0.0 | 4.8 | 0.00 | 0.15 | 0.15 | 89 | 1010.0 |
| 20260509214537 | 13 | 0 | 0.0 | 0.0 | 0.00 | 0.15 | 0.15 | 89 | 1010.1 |
| 20260509213029 | 13 | 0 | 0.0 | 0.0 | 0.03 | 0.15 | 0.15 | 89 | 1010.1 |
| 20260509211529 | 12 | 0 | 0.0 | 0.0 | 0.03 | 0.15 | 0.15 | 90 | 1010.1 |
| 20260509210028 | 12 | 0 | 0.0 | 0.0 | 0.08 | 0.15 | 0.15 | 90 | 1010.2 |
| 20260509204537 | 12 | 0 | 0.0 | 0.0 | 0.08 | 0.15 | 0.15 | 89 | 1009.9 |
| 20260509203027 | 13 | 0 | 0.0 | 0.0 | 0.08 | 0.13 | 0.13 | 88 | 1010.1 |
| 20260509201528 | 13 | 0 | 0.0 | 0.0 | 0.08 | 0.13 | 0.13 | 87 | 1009.9 |
| 20260509200037 | 13 | 0 | 0.0 | 6.4 | 0.03 | 0.08 | 0.08 | 88 | 1010.2 |
| 20260509194537 | 13 | 0 | 1.6 | 6.4 | 0.00 | 0.05 | 0.05 | 87 | 1010.3 |
| 20260509193039 | 13 | 0 | 0.0 | 9.7 | 0.03 | 0.05 | 0.05 | 87 | 1010.7 |
| 20260509191530 | 13 | 0 | 0.0 | 6.4 | 0.03 | 0.05 | 0.05 | 88 | 1011.0 |
| 20260509190028 | 13 | 0 | 0.0 | 4.8 | 0.03 | 0.05 | 0.05 | 87 | 1010.9 |
| 20260509184533 | 13 | 281 | 0.0 | 4.8 | 0.03 | 0.05 | 0.05 | 86 | 1011.0 |
| 20260509183030 | 14 | 0 | 0.0 | 12.9 | 0.00 | 0.03 | 0.03 | 84 | 1011.1 |
| 20260509181529 | 14 | 283 | 1.6 | 6.4 | 0.00 | 0.03 | 0.03 | 83 | 1011.2 |
| 20260509180028 | 14 | 272 | 0.0 | 4.8 | 0.00 | 0.03 | 0.03 | 82 | 1011.1 |
| 20260509174530 | 14 | 0 | 0.0 | 6.4 | 0.03 | 0.03 | 0.03 | 80 | 1010.9 |
| 20260509173027 | 14 | 0 | 0.0 | 4.8 | 0.03 | 0.03 | 0.03 | 81 | 1010.9 |
| 20260509171530 | 15 | 0 | 0.0 | 11.3 | 0.03 | 0.03 | 0.03 | 80 | 1011.2 |
| 20260509170033 | 15 | 302 | 1.6 | 6.4 | 0.03 | 0.03 | 0.03 | 80 | 1011.1 |
| 20260509164528 | 15 | 0 | 1.6 | 9.7 | 0.00 | 0.00 | 0.00 | 78 | 1011.1 |
| 20260509163030 | 16 | 265 | 1.6 | 11.3 | 0.00 | 0.00 | 0.00 | 72 | 1011.1 |
| 20260509161528 | 17 | 256 | 3.2 | 12.9 | 0.00 | 0.00 | 0.00 | 68 | 1011.2 |
| 20260509160028 | 17 | 291 | 3.2 | 14.5 | 0.00 | 0.00 | 0.00 | 67 | 1011.4 |
| 20260509154533 | 17 | 0 | 3.2 | 11.3 | 0.00 | 0.00 | 0.00 | 66 | 1011.5 |